Weather History for Batesville, AR

Change the Weather History Date:

Thursday, July 26, 2012

  Actual Average Record
Temperature  
Mean Temperature 88 °F -  
Max Temperature 102 °F 93 °F 106 °F (1952)
Min Temperature 73 °F 69 °F 57 °F (2000)
Cooling Degree Days 22    
Growing Degree Days 38 (Base 50)    
Moisture  
Dew Point 69 °F    
Average Humidity 59    
Maximum Humidity 100    
Minimum Humidity 29    
Precipitation  
Precipitation 0.29 in - - ()
Sea Level Pressure  
Sea Level Pressure 29.85 in    
Wind  
Wind Speed 7 mph (SSW)    
Max Wind Speed 16 mph    
Max Gust Speed 26 mph    
Visibility 10 miles    
Events Thunderstorm    
Averages and records for this station are not official NWS values.
T = Trace of Precipitation, MM = Missing Value Source: NWS Daily Summary

Daily Weather History Graph

Daily Weather History Graph

Search for Another Location

Airport:

Trip Planner

Search our weather history database for the weather conditions in past years. The results will help you decide how hot, cold, wet, or windy it might be!

Date:

Astronomy

Jul. 26, 2012 Rise Set
Actual Time 6:10 AM CDT 8:15 PM CDT
Civil Twilight 5:41 AM CDT 8:43 PM CDT
Nautical Twilight 5:06 AM CDT 9:18 PM CDT
Astronomical Twilight 4:29 AM CDT 9:56 PM CDT
Moon 2:04 PM CDT (7/26) No Moon Set
Length of Visible Light 15h 02m
Length of Day
14h 05m
First Quarter, 54% of the Moon is Illuminated
Jul 26
First Quarter
Aug 1
Full
Aug 9
Last Quarter
Aug 17
New
Aug 24
First Quarter

Hourly Weather History & Observations

Time (CDT) Temp. Heat Index Dew Point Humidity Pressure Visibility Wind Dir Wind Speed Gust Speed Precip Events Conditions
12:15 AM 86.0 °F 91.8 °F 71.6 °F 62% 29.85 in 10.0 mi South 6.9 mph - N/A   Clear
12:35 AM 86.0 °F 91.8 °F 71.6 °F 62% 29.84 in 10.0 mi SSW 8.1 mph - N/A   Clear
12:55 AM 84.2 °F 88.4 °F 69.8 °F 62% 29.83 in 10.0 mi South 5.8 mph - N/A   Clear
1:15 AM 84.2 °F 88.4 °F 69.8 °F 62% 29.84 in 10.0 mi SSW 8.1 mph - N/A   Clear
1:35 AM 84.2 °F 88.4 °F 69.8 °F 62% 29.84 in 10.0 mi SSW 6.9 mph - N/A   Clear
1:55 AM 84.2 °F 88.4 °F 69.8 °F 62% 29.84 in 10.0 mi SSW 5.8 mph - N/A   Clear
2:15 AM 84.2 °F 88.4 °F 69.8 °F 62% 29.83 in 10.0 mi South 4.6 mph - N/A   Clear
2:35 AM 84.2 °F 88.4 °F 69.8 °F 62% 29.84 in 10.0 mi SW 5.8 mph - N/A   Clear
2:55 AM 84.2 °F 87.3 °F 68.0 °F 58% 29.84 in 10.0 mi SW 8.1 mph - N/A   Clear
3:15 AM 84.2 °F 87.3 °F 68.0 °F 58% 29.84 in 10.0 mi SW 6.9 mph - N/A   Clear
3:35 AM 84.2 °F 87.3 °F 68.0 °F 58% 29.85 in 10.0 mi SW 8.1 mph - N/A   Clear
3:55 AM 82.4 °F 85.4 °F 68.0 °F 62% 29.85 in 10.0 mi SW 5.8 mph - N/A   Clear
4:15 AM 82.4 °F 85.4 °F 68.0 °F 62% 29.85 in 10.0 mi SW 5.8 mph - N/A   Clear
4:35 AM 82.4 °F 85.4 °F 68.0 °F 62% 29.86 in 10.0 mi SW 3.5 mph - N/A   Clear
4:55 AM 82.4 °F 86.3 °F 69.8 °F 66% 29.85 in 10.0 mi SW 5.8 mph - N/A   Clear
5:15 AM 82.4 °F 85.4 °F 68.0 °F 62% 29.85 in 10.0 mi SSW 8.1 mph - N/A   Clear
5:35 AM 80.6 °F 83.9 °F 69.8 °F 70% 29.86 in 10.0 mi SSW 4.6 mph - N/A   Clear
5:55 AM 80.6 °F 83.9 °F 69.8 °F 70% 29.87 in 10.0 mi SSW 6.9 mph - N/A   Clear
6:15 AM 80.6 °F 83.9 °F 69.8 °F 70% 29.87 in 10.0 mi WSW 4.6 mph - N/A   Clear
6:35 AM 80.6 °F 83.9 °F 69.8 °F 70% 29.87 in 10.0 mi WSW 5.8 mph - N/A   Clear
6:55 AM 82.4 °F 86.3 °F 69.8 °F 66% 29.88 in 10.0 mi SW 8.1 mph - N/A   Clear
7:15 AM 82.4 °F 86.3 °F 69.8 °F 66% 29.88 in 10.0 mi WSW 8.1 mph - N/A   Clear
7:35 AM 84.2 °F 88.4 °F 69.8 °F 62% 29.89 in 10.0 mi SW 9.2 mph - N/A   Clear
7:55 AM 84.2 °F 88.4 °F 69.8 °F 62% 29.89 in 10.0 mi SW 11.5 mph 18.4 mph N/A   Clear
8:15 AM 86.0 °F 91.8 °F 71.6 °F 62% 29.90 in 10.0 mi WSW 9.2 mph - N/A   Clear
8:35 AM 87.8 °F 93.8 °F 71.6 °F 58% 29.90 in 10.0 mi SSW 9.2 mph - N/A   Clear
8:55 AM 89.6 °F 96.2 °F 71.6 °F 55% 29.90 in 10.0 mi West 9.2 mph - N/A   Clear
9:15 AM 91.4 °F 98.4 °F 71.6 °F 52% 29.90 in 10.0 mi West 13.8 mph - N/A   Clear
9:35 AM 91.4 °F 98.4 °F 71.6 °F 52% 29.90 in 10.0 mi West 9.2 mph - N/A   Clear
9:55 AM 93.2 °F 98.8 °F 69.8 °F 46% 29.90 in 10.0 mi SW 9.2 mph - N/A   Clear
10:15 AM 93.2 °F 98.8 °F 69.8 °F 46% 29.90 in 10.0 mi SW 10.4 mph - N/A   Clear
10:35 AM 93.2 °F 98.8 °F 69.8 °F 46% 29.90 in 10.0 mi SSW 8.1 mph - N/A   Partly Cloudy
10:55 AM 95.0 °F 103.2 °F 71.6 °F 47% 29.89 in 10.0 mi SW 8.1 mph - N/A   Clear
11:15 AM 96.8 °F 103.1 °F 69.8 °F 41% 29.88 in 10.0 mi SSW 12.7 mph 19.6 mph N/A   Clear
11:35 AM 98.6 °F 105.5 °F 69.8 °F 39% 29.88 in 10.0 mi West 12.7 mph 17.3 mph N/A   Scattered Clouds
11:55 AM 96.8 °F 103.1 °F 69.8 °F 41% 29.87 in 10.0 mi South 8.1 mph 16.1 mph N/A   Mostly Cloudy
12:15 PM 98.6 °F 105.5 °F 69.8 °F 39% 29.87 in 10.0 mi South 9.2 mph 17.3 mph N/A   Overcast
12:35 PM 96.8 °F 100.7 °F 66.2 °F 37% 29.86 in 10.0 mi SSW 4.6 mph - N/A   Mostly Cloudy
12:55 PM 98.6 °F 102.8 °F 66.2 °F 35% 29.85 in 10.0 mi SW 6.9 mph - N/A   Mostly Cloudy
1:15 PM 98.6 °F 102.8 °F 66.2 °F 35% 29.84 in 10.0 mi SW 8.1 mph 18.4 mph N/A   Partly Cloudy
1:35 PM 100.4 °F 104.9 °F 66.2 °F 33% 29.84 in 10.0 mi SSE 6.9 mph - N/A   Partly Cloudy
1:55 PM 100.4 °F 104.9 °F 66.2 °F 33% 29.83 in 10.0 mi South 10.4 mph 19.6 mph N/A   Mostly Cloudy
2:15 PM 100.4 °F 104.9 °F 66.2 °F 33% 29.83 in 10.0 mi SW 12.7 mph 18.4 mph N/A   Scattered Clouds
2:35 PM 96.8 °F 100.7 °F 66.2 °F 37% 29.83 in 10.0 mi West 8.1 mph 16.1 mph N/A   Mostly Cloudy
2:55 PM 98.6 °F 104.1 °F 68.0 °F 37% 29.81 in 10.0 mi West 8.1 mph - N/A Thunderstorm Scattered Clouds
3:15 PM 100.4 °F 104.9 °F 66.2 °F 33% 29.80 in 10.0 mi West 8.1 mph - N/A   Clear
3:35 PM 100.4 °F 104.9 °F 66.2 °F 33% 29.79 in 10.0 mi South 3.5 mph - N/A   Clear
3:55 PM 100.4 °F 104.9 °F 66.2 °F 33% 29.78 in 10.0 mi SE 6.9 mph - N/A   Scattered Clouds
4:15 PM 100.4 °F 103.6 °F 64.4 °F 31% 29.77 in 10.0 mi South 10.4 mph - N/A   Scattered Clouds
4:35 PM 100.4 °F 102.4 °F 62.6 °F 29% 29.77 in 10.0 mi South 11.5 mph 19.6 mph N/A   Mostly Cloudy
4:55 PM 102.2 °F 105.5 °F 64.4 °F 29% 29.76 in 10.0 mi South 13.8 mph 19.6 mph N/A   Mostly Cloudy
5:15 PM 102.2 °F 105.5 °F 64.4 °F 29% 29.76 in 10.0 mi South 13.8 mph 20.7 mph N/A   Mostly Cloudy
5:35 PM 100.4 °F 103.6 °F 64.4 °F 31% 29.76 in 10.0 mi South 16.1 mph 24.2 mph N/A   Mostly Cloudy
5:55 PM 100.4 °F 103.6 °F 64.4 °F 31% 29.78 in 10.0 mi SW 12.7 mph 24.2 mph N/A   Mostly Cloudy
6:15 PM 86.0 °F 88.2 °F 66.2 °F 51% 29.81 in 10.0 mi NW 12.7 mph 26.5 mph N/A   Overcast
6:35 PM 84.2 °F 86.6 °F 66.2 °F 55% 29.82 in 10.0 mi NW 5.8 mph - N/A Thunderstorm Thunderstorm
6:55 PM 78.8 °F - 69.8 °F 74% 29.81 in 10.0 mi West 4.6 mph - 0.02 in Thunderstorm Mostly Cloudy
7:15 PM 78.8 °F - 71.6 °F 78% 29.85 in 10.0 mi Calm Calm - N/A Thunderstorm Thunderstorm
7:35 PM 77.0 °F - 71.6 °F 83% 29.89 in 2.5 mi SE 9.2 mph - 0.22 in Thunderstorm Thunderstorm
7:55 PM 75.2 °F - 71.6 °F 89% 29.89 in 10.0 mi East 9.2 mph - 0.25 in Thunderstorm Thunderstorm
8:15 PM 73.4 °F - 71.6 °F 94% 29.90 in 10.0 mi SSE 8.1 mph - N/A   Mostly Cloudy
8:35 PM 75.2 °F - 71.6 °F 89% - 10.0 mi SE 3.5 mph - N/A   Mostly Cloudy
8:55 PM 75.2 °F - 71.6 °F 89% - 10.0 mi NNE 5.8 mph - N/A   Mostly Cloudy
9:15 PM 75.2 °F - 71.6 °F 89% 29.90 in 10.0 mi SSW 9.2 mph - N/A   Partly Cloudy
9:35 PM 73.4 °F - 71.6 °F 94% - 10.0 mi South 5.8 mph - N/A   Mostly Cloudy
9:55 PM 73.4 °F - 71.6 °F 94% - 10.0 mi South 5.8 mph - 0.01 in   Mostly Cloudy
10:15 PM 73.4 °F - 71.6 °F 94% - 10.0 mi Calm Calm - 0.01 in   Mostly Cloudy
10:35 PM 73.4 °F - 71.6 °F 94% - 10.0 mi NNE 4.6 mph - 0.01 in   Partly Cloudy
10:55 PM 73.4 °F - 71.6 °F 94% - 10.0 mi North 3.5 mph - 0.01 in   Clear
11:15 PM 75.2 °F - 73.4 °F 94% - 10.0 mi South 3.5 mph - N/A   Clear
11:35 PM 73.4 °F - 73.4 °F 100% - 10.0 mi Calm Calm - N/A   Clear
11:55 PM 73.4 °F - 73.4 °F 100% - 10.0 mi Calm Calm - N/A   Clear